Location: Shepherdstown, WV
(39.4326°N, 77.8042°W)
Time: 10:39:58
(UTC-04:00)

Tiangong - Pass Details

Date: 25 June 2021
Orbit: 374 x 386 km, 41.5° (Epoch: 25 July)

Event Time Altitude Azimuth Distance (km) Brightness Sun altitude
Exits shadow 03:06:22 36° 73° (ENE) 613 2.4 -21.9°
Drops below altitude 10° 03:08:22 10° 75° (ENE) 1,388 4.4 -21.7°
Sets 03:10:28 0° 76° (ENE) 2,256 5.6 -21.5°
